Previsão horária em Abdurashid

Hoje, 17 Abril, Sábado

Tempo Temperatura Precipitação Vento Pressão Humidade
00:00 +13°C° 0 mm 2 m/s 761 mmHg 62%
01:00 +13°C° 0 mm 2 m/s 761 mmHg 65%
02:00 +12°C° 0 mm 2 m/s 761 mmHg 67%
03:00 +12°C° 0 mm 2 m/s 761 mmHg 69%
04:00 +12°C° 0 mm 2 m/s 761 mmHg 70%
05:00 +12°C° 0 mm 2 m/s 761 mmHg 71%
06:00 +13°C° 0 mm 2 m/s 761 mmHg 71%
07:00 +14°C° 0 mm 3 m/s 761 mmHg 64%
08:00 +18°C° 0 mm 4 m/s 760 mmHg 56%
09:00 +20°C° 0 mm 4 m/s 760 mmHg 48%
10:00 +21°C° 0 mm 4 m/s 760 mmHg 45%
11:00 +22°C° 0 mm 4 m/s 760 mmHg 43%
12:00 +23°C° 0 mm 4 m/s 760 mmHg 40%
13:00 +25°C° 0 mm 4 m/s 761 mmHg 40%
14:00 +25°C° 0 mm 4 m/s 761 mmHg 40%
15:00 +25°C° 0 mm 4 m/s 761 mmHg 40%
16:00 +22°C° 0 mm 4 m/s 761 mmHg 47%
17:00 +20°C° 0 mm 3 m/s 761 mmHg 53%
18:00 +19°C° 0 mm 3 m/s 762 mmHg 59%
19:00 +18°C° 0 mm 3 m/s 762 mmHg 60%
20:00 +17°C° 0 mm 4 m/s 763 mmHg 62%
21:00 +15°C° 0 mm 5 m/s 763 mmHg 64%
22:00 +15°C° 0 mm 4 m/s 763 mmHg 67%
23:00 +14°C° 0 mm 4 m/s 763 mmHg 69%

Amanhã, 18 Abril, Domingo

Tempo Temperatura Precipitação Vento Pressão Humidade
00:00 +14°C° 0 mm 4 m/s 763 mmHg 72%
01:00 +13°C° 0 mm 4 m/s 763 mmHg 75%
02:00 +13°C° 0 mm 4 m/s 763 mmHg 78%
03:00 +12°C° 0 mm 4 m/s 763 mmHg 80%
04:00 +12°C° 0 mm 3 m/s 763 mmHg 82%
05:00 +12°C° 0 mm 3 m/s 763 mmHg 84%
06:00 +13°C° 0 mm 2 m/s 763 mmHg 86%
07:00 +14°C° 0 mm 2 m/s 763 mmHg 79%
08:00 +16°C° 0 mm 2 m/s 763 mmHg 73%
09:00 +17°C° 0 mm 2 m/s 763 mmHg 66%
10:00 +18°C° 0 mm 2 m/s 762 mmHg 60%
11:00 +20°C° 0 mm 2 m/s 761 mmHg 54%
12:00 +21°C° 0 mm 3 m/s 761 mmHg 47%
13:00 +21°C° 0 mm 3 m/s 761 mmHg 46%
14:00 +22°C° 0 mm 3 m/s 761 mmHg 45%
15:00 +22°C° 0 mm 3 m/s 761 mmHg 44%
16:00 +20°C° 0 mm 3 m/s 761 mmHg 50%
17:00 +19°C° 0 mm 3 m/s 761 mmHg 56%
18:00 +17°C° 0 mm 3 m/s 762 mmHg 61%
19:00 +17°C° 0.1 mm 2 m/s 762 mmHg 65%
20:00 +16°C° 0.1 mm 2 m/s 762 mmHg 68%
21:00 +15°C° 0.1 mm 1 m/s 762 mmHg 71%
22:00 +14°C° 0 mm 1 m/s 762 mmHg 71%
23:00 +14°C° 0 mm 1 m/s 762 mmHg 71%

Depois de amanhã, 19 Abril, Segunda-feira

Tempo Temperatura Precipitação Vento Pressão Humidade
00:00 +14°C° 0 mm 2 m/s 761 mmHg 71%
01:00 +13°C° 0 mm 2 m/s 761 mmHg 72%
02:00 +13°C° 0 mm 2 m/s 761 mmHg 73%
03:00 +13°C° 0 mm 2 m/s 761 mmHg 74%
04:00 +13°C° 0 mm 2 m/s 761 mmHg 74%
05:00 +13°C° 0 mm 2 m/s 761 mmHg 75%
06:00 +13°C° 0 mm 2 m/s 761 mmHg 75%
07:00 +15°C° 0 mm 2 m/s 761 mmHg 68%
08:00 +17°C° 0 mm 3 m/s 761 mmHg 61%
09:00 +19°C° 0 mm 4 m/s 761 mmHg 54%
10:00 +20°C° 0 mm 4 m/s 761 mmHg 51%
11:00 +21°C° 0 mm 5 m/s 760 mmHg 47%
12:00 +23°C° 0 mm 6 m/s 760 mmHg 44%
13:00 +23°C° 0 mm 6 m/s 759 mmHg 44%
14:00 +23°C° 0 mm 6 m/s 759 mmHg 43%
15:00 +23°C° 0 mm 7 m/s 759 mmHg 43%
16:00 +21°C° 0 mm 7 m/s 759 mmHg 48%
17:00 +19°C° 0 mm 6 m/s 758 mmHg 52%
18:00 +17°C° 0 mm 6 m/s 758 mmHg 57%
19:00 +16°C° 0 mm 6 m/s 758 mmHg 59%
20:00 +15°C° 0 mm 5 m/s 758 mmHg 60%
21:00 +14°C° 0 mm 5 m/s 758 mmHg 62%
22:00 +14°C° 0 mm 5 m/s 758 mmHg 62%
23:00 +14°C° 0 mm 5 m/s 757 mmHg 63%

20 Abril, Terça-feira

Tempo Temperatura Precipitação Vento Pressão Humidade
00:00 +14°C° 0 mm 5 m/s 757 mmHg 64%
01:00 +14°C° 0 mm 5 m/s 756 mmHg 65%
02:00 +13°C° 0 mm 5 m/s 756 mmHg 65%
03:00 +13°C° 0 mm 4 m/s 756 mmHg 66%
04:00 +14°C° 0 mm 5 m/s 755 mmHg 66%
05:00 +14°C° 0 mm 6 m/s 755 mmHg 66%
06:00 +14°C° 0 mm 6 m/s 754 mmHg 66%
07:00 +16°C° 0 mm 7 m/s 754 mmHg 62%
08:00 +18°C° 0 mm 8 m/s 753 mmHg 57%
09:00 +21°C° 0 mm 9 m/s 752 mmHg 53%
10:00 +22°C° 0 mm 8 m/s 752 mmHg 52%
11:00 +22°C° 0 mm 8 m/s 751 mmHg 51%
12:00 +23°C° 0 mm 8 m/s 751 mmHg 51%
13:00 +23°C° 0 mm 8 m/s 751 mmHg 52%
14:00 +22°C° 0 mm 9 m/s 750 mmHg 54%
15:00 +22°C° 0 mm 9 m/s 750 mmHg 56%
16:00 +20°C° 0 mm 7 m/s 750 mmHg 61%
17:00 +19°C° 0 mm 6 m/s 751 mmHg 66%
18:00 +17°C° 0 mm 5 m/s 751 mmHg 71%
19:00 +17°C° 0 mm 4 m/s 752 mmHg 73%
20:00 +16°C° 0 mm 3 m/s 753 mmHg 75%
21:00 +16°C° 0 mm 3 m/s 754 mmHg 76%
22:00 +15°C° 0 mm 5 m/s 755 mmHg 74%
23:00 +15°C° 0 mm 8 m/s 756 mmHg 71%

21 Abril, Quarta-feira

Tempo Temperatura Precipitação Vento Pressão Humidade
00:00 +16°C° 0 mm 10 m/s 757 mmHg 68%
01:00 +14°C° 0 mm 10 m/s 758 mmHg 68%
02:00 +14°C° 0 mm 10 m/s 758 mmHg 67%
03:00 +14°C° 0 mm 10 m/s 759 mmHg 66%
04:00 +13°C° 0 mm 9 m/s 760 mmHg 64%
05:00 +13°C° 0 mm 9 m/s 760 mmHg 62%
06:00 +13°C° 0 mm 8 m/s 761 mmHg 60%
07:00 +14°C° 0 mm 7 m/s 761 mmHg 61%
08:00 +14°C° 0 mm 7 m/s 762 mmHg 62%
09:00 +14°C° 0 mm 7 m/s 762 mmHg 63%
10:00 +14°C° 0 mm 7 m/s 762 mmHg 62%
11:00 +15°C° 0 mm 6 m/s 762 mmHg 61%
12:00 +15°C° 0 mm 6 m/s 762 mmHg 60%
13:00 +15°C° 0 mm 6 m/s 762 mmHg 59%
14:00 +16°C° 0 mm 6 m/s 762 mmHg 57%
15:00 +16°C° 0 mm 6 m/s 762 mmHg 56%
16:00 +15°C° 0 mm 6 m/s 763 mmHg 57%
17:00 +15°C° 0 mm 6 m/s 763 mmHg 59%
18:00 +14°C° 0 mm 6 m/s 763 mmHg 60%
19:00 +14°C° 0 mm 6 m/s 763 mmHg 61%
20:00 +13°C° 0 mm 5 m/s 763 mmHg 63%
21:00 +13°C° 0 mm 5 m/s 764 mmHg 65%
22:00 +11°C° 0 mm 6 m/s 764 mmHg 68%
23:00 +11°C° 0 mm 6 m/s 764 mmHg 72%

22 Abril, Quinta-feira

Tempo Temperatura Precipitação Vento Pressão Humidade
00:00 +10°C° 0 mm 6 m/s 764 mmHg 75%
01:00 +10°C° 0 mm 5 m/s 764 mmHg 77%
02:00 +10°C° 0 mm 5 m/s 764 mmHg 78%
03:00 +10°C° 0 mm 5 m/s 764 mmHg 80%
04:00 +10°C° 0 mm 5 m/s 764 mmHg 81%
05:00 +10°C° 0 mm 5 m/s 765 mmHg 82%
06:00 +10°C° 0 mm 5 m/s 765 mmHg 83%
07:00 +10°C° 0.1 mm 5 m/s 765 mmHg 85%
08:00 +11°C° 0.1 mm 4 m/s 766 mmHg 86%
09:00 +11°C° 0.1 mm 4 m/s 766 mmHg 87%
10:00 +10°C° 0.2 mm 5 m/s 766 mmHg 88%
11:00 +10°C° 0.2 mm 5 m/s 766 mmHg 88%
12:00 +10°C° 0.2 mm 5 m/s 767 mmHg 88%
13:00 +12°C° 0.5 mm 5 m/s 767 mmHg 84%
14:00 +12°C° 0.5 mm 4 m/s 767 mmHg 81%
15:00 +12°C° 0.5 mm 4 m/s 767 mmHg 77%
16:00 +13°C° 0 mm 3 m/s 767 mmHg 74%
17:00 +13°C° 0 mm 3 m/s 767 mmHg 72%
18:00 +15°C° 0 mm 2 m/s 767 mmHg 69%
19:00 +14°C° 0 mm 2 m/s 767 mmHg 72%
20:00 +12°C° 0 mm 2 m/s 767 mmHg 75%
21:00 +10°C° 0 mm 2 m/s 767 mmHg 78%
22:00 +10°C° 0 mm 2 m/s 767 mmHg 79%
23:00 +10°C° 0 mm 2 m/s 767 mmHg 79%
Mostrar mais